[[{"header":{"parameterUnit":"m.s-1","parameterCategory":2,"la1":30.2991,"la2":30.254,"lo1":-89.0895,"lo2":-89.0444,"dy":0.0017,"dx":0.0017,"nx":28,"ny":28,"refTime":"2024-10-05T03:00:00:Z","depth":"0","parameterNumber":2,"parameterNumberName":"U-component_of_CURRENTS"},"data":[0,0,0,0,0,0,0,0,0,0,0,0,0,0,0,0,0,0,0,0,0,0,0,0,0,0,0,0,0,0,0,0,0,0,0,0,0,0,0,0,0,0,0,0,0,0,0,0,0,0,0,0,0,0,0,0,0,0,0.2185,0.2185,0,0.216,0.216,0.2159,0.2127,0.2127,0.2127,0.2127,0.2097,0.2097,0.2096,0,0,0,0,0,0,0,0,0,0,0,0,0,0.2214,0.2214,0.2185,0.2185,0.2185,0.216,0.216,0.2159,0.2128,0.2127,0.2127,0.2126,0.2097,0.2097,0.2096,0,0,0,0,0,0,0,0,0,0,0,0,0,0.2195,0.2214,0.2185,0.2168,0.2166,0.216,0.216,0.2159,0.2128,0.2127,0.2127,0.2126,0.2097,0.2097,0.2096,0.21,0,0,0.2094,0.2093,0,0,0,0,0,0,0,0,0.2196,0.2193,0.217,0.2169,0.2167,0.2149,0.216,0.214,0.2128,0.214,0.2127,0.2126,0.2116,0.2113,0.2106,0.2099,0.2098,0.2094,0.2093,0.2093,0.2093,0,0,0,0,0,0,0,0.2197,0.2194,0.2173,0.217,0.2168,0.2165,0.2161,0.2156,0.2129,0.2139,0.2137,0.2138,0.2114,0.2107,0.2106,0.2097,0.2094,0.2093,0.2092,0.2092,0.2119,0.212,0,0,0,0,0,0,0.2205,0.2195,0.2173,0.2172,0.2183,0.2165,0.2161,0.2153,0.2129,0.2125,0.2138,0.2137,0.2109,0.2107,0.2104,0.2127,0.2093,0.2092,0.2092,0.2118,0.2119,0.2121,0,0,0,0,0,0,0.2205,0.2203,0.2174,0.2186,0.2182,0.2165,0.2157,0.2153,0.2149,0.2129,0.2125,0.2139,0.2108,0.2106,0.2108,0.2124,0.2092,0.2091,0.2117,0.2118,0.212,0.2159,0,0,0,0,0,0,0.2206,0.2203,0.2202,0.2186,0.2182,0.2176,0.2157,0.2153,0.2152,0.2149,0.2129,0.2125,0.2108,0.211,0.2108,0.2123,0.209,0.2115,0.2117,0.212,0.2156,0.2162,0.2167,0,0,0,0,0,0.2207,0.2205,0.2202,0.2199,0.218,0.2177,0.2174,0.2159,0.2152,0.2153,0.2144,0.2126,0.2122,0.211,0.2107,0.2123,0.2114,0.2117,0.2119,0.2154,0.2161,0.2167,0,0,0,0,0,0,0.2216,0.2202,0.2197,0.2191,0.2189,0.2172,0.2172,0.2166,0.2159,0.2157,0.2137,0.2133,0.2144,0.2131,0.2118,0.2139,0.2117,0.212,0.2145,0.2151,0.2156,0.2161,0.209,0,0,0,0,0,0.222,0.2213,0.2205,0.2201,0.2201,0.219,0.2188,0.218,0.2172,0.2168,0.2156,0.215,0.2153,0.215,0.2147,0.2155,0.216,0.2166,0.2171,0.2176,0.218,0.221,0.2218,0.2129,0.2129,0.2129,0,0,0.2221,0.2214,0.2209,0.2203,0.2198,0.22,0.2186,0.2187,0.219,0.2167,0.2168,0.2167,0.2161,0.2171,0.2175,0.2161,0.2205,0.2179,0.2183,0.2184,0.2213,0.2222,0.223,0.2131,0.2131,0.2131,0,0,0.2221,0.2217,0.2212,0.2214,0.2214,0.2211,0.2216,0.2207,0.2205,0.2211,0.2202,0.2214,0.2205,0.2209,0.2209,0.2244,0.2234,0.2244,0.2269,0.2298,0.2306,0.2312,0.2334,0.2342,0.2243,0.2243,0.2243,0,0.2225,0.2215,0.2213,0.2214,0.2217,0.222,0.2222,0.2225,0.222,0.2229,0.2217,0.2234,0.2226,0.2251,0.2261,0.2256,0.2268,0.2243,0.2305,0.2311,0.2318,0.2338,0.2347,0.2245,0.2245,0.2245,0.2244,0,0.222,0.2219,0.222,0.2221,0.2228,0.2231,0.224,0.225,0.2253,0.2259,0.2285,0.2282,0.2294,0.2297,0.2286,0.2329,0.2322,0.231,0.2287,0.2329,0.2348,0.2356,0.2248,0.2247,0.2247,0.2246,0,0,0.2203,0.2214,0.2212,0.2214,0.2231,0.2232,0.2256,0.2275,0.2298,0.2305,0.2332,0.2344,0.2352,0.2355,0.2351,0.2373,0.2424,0.2359,0.236,0.2378,0.2488,0.2457,0.2462,0.2424,0.2425,0.2427,0.2485,0,0.2197,0.2199,0.221,0.2217,0.2218,0.224,0.2263,0.2288,0.2313,0.2345,0.2363,0.2388,0.2372,0.2383,0.2407,0.2424,0.2447,0.2409,0.2448,0.2449,0.2414,0.2471,0.2385,0.2428,0.2493,0.2495,0.2496,0,0.2179,0.2184,0.2187,0.2212,0.2216,0.2228,0.2269,0.2293,0.2351,0.2377,0.2417,0.2432,0.2474,0.245,0.2507,0.2484,0.249,0.2498,0.25,0.2462,0.2433,0.2397,0.244,0.2384,0.2508,0.2507,0.2506,0,0.2146,0.2164,0.2165,0.2171,0.2205,0.2217,0.2242,0.2298,0.2333,0.2402,0.2436,0.2488,0.2518,0.2543,0.256,0.2539,0.2619,0.2591,0.2569,0.2567,0.2496,0.2484,0.2485,0.263,0.263,0.263,0.263,0,0.2122,0.212,0.2149,0.2146,0.2163,0.2195,0.2232,0.2274,0.2347,0.2392,0.2447,0.2492,0.2543,0.2588,0.2591,0.2615,0.2648,0.2589,0.2587,0.2507,0.2496,0.2445,0.2418,0.2632,0.2632,0.2631,0.2631,0,0.2075,0.2093,0.2096,0.2131,0.2143,0.2154,0.2219,0.2251,0.2327,0.239,0.2413,0.2514,0.2578,0.2619,0.2674,0.2655,0.26,0.267,0.2571,0.2556,0.2464,0.2442,0.2345,0.2258,0.2657,0.2657,0.2656,0,0.2046,0.2044,0.2077,0.2083,0.2095,0.2124,0.2149,0.2231,0.2272,0.2392,0.2417,0.2514,0.2572,0.2658,0.2657,0.2678,0.2589,0.2591,0.2531,0.2462,0.2437,0.2328,0.2253,0.2456,0.2455,0.2453,0.2452,0,0.1999,0.2014,0.2022,0.2039,0.2055,0.2081,0.2122,0.2152,0.2248,0.2307,0.2396,0.2459,0.256,0.2565,0.2602,0.2593,0.2461,0.2559,0.2516,0.2309,0.2162,0.2075,0.2414,0.2438,0.2439,0.244,0.2441,0.2442,0.1968,0.1964,0.1981,0.1989,0.2007,0.2019,0.2019,0.2074,0.2127,0.2192,0.2307,0.237,0.2445,0.2498,0.2477,0.2397,0.2367,0.2319,0.231,0.2214,0.2089,0.2396,0.2397,0.2398,0.2399,0.24,0.2401,0,0.1923,0.1925,0.1931,0.1931,0.192,0.1956,0.1984,0.1973,0.1992,0.2092,0.2158,0.2225,0.2247,0.2289,0.2263,0.217,0.2043,0.2103,0.1936,0.1882,0.2193,0.2144,0.2055,0.2055,0.2055,0.2056,0.2056,0.2056,0.1901,0.1885,0.1884,0.1842,0.184,0.1801,0.18,0.1799,0.1849,0.1877,0.1921,0.1993,0.211,0.215,0.2075,0.2009,0.1828,0.1745,0.1721,0.1969,0.1987,0.2005,0.1953,0.1826,0.1825,0.1315,0.1311,0.1309]},{"header":{"parameterUnit":"m.s-1","parameterCategory":2,"la1":30.2991,"la2":30.254,"lo1":-89.0895,"lo2":-89.0444,"dy":0.0017,"dx":0.0017,"nx":28,"ny":28,"refTime":"2024-10-05T03:00:00:Z","depth":"0","parameterNumber":3,"parameterNumberName":"V-component_of_CURRENTS"},"data":[0,0,0,0,0,0,0,0,0,0,0,0,0,0,0,0,0,0,0,0,0,0,0,0,0,0,0,0,0,0,0,0,0,0,0,0,0,0,0,0,0,0,0,0,0,0,0,0,0,0,0,0,0,0,0,0,0,0,-0.0061,-0.0061,0,-0.0092,-0.0093,-0.0093,-0.0113,-0.0113,-0.0113,-0.0113,-0.0161,-0.0162,-0.0164,0,0,0,0,0,0,0,0,0,0,0,0,0,-0.0057,-0.0057,-0.0061,-0.0061,-0.0061,-0.0092,-0.0093,-0.0093,-0.0113,-0.0113,-0.0113,-0.0113,-0.0161,-0.0162,-0.0164,0,0,0,0,0,0,0,0,0,0,0,0,0,-0.0072,-0.0057,-0.0061,-0.0074,-0.0076,-0.0092,-0.0093,-0.0094,-0.0113,-0.0113,-0.0113,-0.0113,-0.016,-0.0162,-0.0164,-0.0175,0,0,-0.017,-0.0171,0,0,0,0,0,0,0,0,-0.0071,-0.0072,-0.0072,-0.0073,-0.0075,-0.0098,-0.0109,-0.0121,-0.0113,-0.01,-0.0113,-0.0113,-0.0141,-0.0144,-0.0152,-0.0178,-0.018,-0.017,-0.0171,-0.0172,-0.0173,0,0,0,0,0,0,0,-0.007,-0.0071,-0.0074,-0.0072,-0.0074,-0.0092,-0.0094,-0.0112,-0.0121,-0.0101,-0.0102,-0.0104,-0.0142,-0.015,-0.0153,-0.018,-0.017,-0.0172,-0.0173,-0.0174,-0.0209,-0.0209,0,0,0,0,0,0,-0.0061,-0.0069,-0.0073,-0.0075,-0.0072,-0.0092,-0.0094,-0.0091,-0.0121,-0.0125,-0.0104,-0.0105,-0.0146,-0.0151,-0.0155,-0.0153,-0.0172,-0.0174,-0.0175,-0.0209,-0.0209,-0.0209,0,0,0,0,0,0,-0.0061,-0.0061,-0.0072,-0.0073,-0.0075,-0.0091,-0.0089,-0.0092,-0.0097,-0.0122,-0.0127,-0.0105,-0.0147,-0.0152,-0.0163,-0.0155,-0.0175,-0.0176,-0.0209,-0.0209,-0.0209,-0.016,0,0,0,0,0,0,-0.0061,-0.0061,-0.0058,-0.0072,-0.0075,-0.0074,-0.0089,-0.0093,-0.0097,-0.0099,-0.0125,-0.0129,-0.0147,-0.016,-0.0165,-0.0158,-0.0178,-0.021,-0.0209,-0.0209,-0.0162,-0.0158,-0.0154,0,0,0,0,0,-0.006,-0.0053,-0.0058,-0.0058,-0.007,-0.0074,-0.0077,-0.009,-0.0097,-0.0095,-0.0112,-0.0128,-0.0162,-0.0162,-0.0167,-0.0161,-0.021,-0.0209,-0.0209,-0.0163,-0.0159,-0.0155,0,0,0,0,0,0,-0.0052,-0.0054,-0.006,-0.0054,-0.0061,-0.0076,-0.0077,-0.0086,-0.0099,-0.0101,-0.0126,-0.0132,-0.014,-0.0158,-0.0157,-0.0171,-0.0189,-0.0189,-0.0152,-0.0148,-0.0144,-0.0127,-0.0179,0,0,0,0,0,-0.0048,-0.0042,-0.005,-0.0046,-0.0047,-0.0062,-0.0066,-0.0074,-0.0086,-0.0092,-0.0109,-0.0129,-0.0144,-0.015,-0.0169,-0.0175,-0.0193,-0.0175,-0.0171,-0.0168,-0.0159,-0.018,-0.0178,-0.0207,-0.0207,-0.0207,0,0,-0.0046,-0.0045,-0.0043,-0.0044,-0.0051,-0.0043,-0.0064,-0.0066,-0.006,-0.0095,-0.0095,-0.0118,-0.0143,-0.015,-0.0155,-0.0162,-0.0171,-0.0168,-0.0165,-0.0157,-0.018,-0.0177,-0.0174,-0.0207,-0.0207,-0.0207,0,0,-0.003,-0.0035,-0.002,-0.0021,-0.0024,-0.0031,-0.0028,-0.004,-0.0046,-0.0051,-0.0074,-0.0088,-0.0113,-0.0125,-0.0136,-0.0124,-0.0153,-0.0133,-0.0099,-0.012,-0.0117,-0.0115,-0.0137,-0.0137,-0.0129,-0.0129,-0.0129,0,-0.0026,-0.0007,-0.0019,-0.0003,0.0002,-0.0021,-0.0003,-0.0012,-0.0027,-0.0025,-0.0044,-0.0075,-0.0099,-0.01,-0.0097,-0.0115,-0.0133,-0.0111,-0.0114,-0.0113,-0.0111,-0.0134,-0.0135,-0.0126,-0.0127,-0.0127,-0.0127,0,0.0005,0.0018,0.0026,0.0041,0.0043,0.0053,0.0045,0.0041,0.0028,0.0022,0.0013,-0.0024,-0.0038,-0.0053,-0.0072,-0.0072,-0.009,-0.0109,-0.0122,-0.0105,-0.013,-0.0132,-0.0123,-0.0124,-0.0125,-0.0125,0,0,0.0022,0.0045,0.0049,0.0067,0.007,0.0079,0.0085,0.0093,0.011,0.0078,0.0092,0.0055,0.0035,0.0022,-0.0009,-0.0029,-0.0042,-0.006,-0.0063,-0.0076,-0.0089,-0.0095,-0.0099,-0.0062,-0.0062,-0.0062,-0.011,0,0.0053,0.0096,0.0096,0.0134,0.0156,0.0141,0.0155,0.0155,0.015,0.0155,0.0113,0.0111,0.0065,0.0058,0.0031,-0.0021,-0.0045,-0.0027,-0.0108,-0.011,-0.0113,-0.01,-0.0078,-0.0119,-0.0112,-0.0113,-0.0113,0,0.009,0.0115,0.0159,0.0192,0.0201,0.0215,0.024,0.0252,0.0249,0.0243,0.0228,0.0195,0.0163,0.0116,0.0039,0.0052,-0.0011,-0.0059,-0.0063,-0.0085,-0.012,-0.0135,-0.0123,-0.0224,-0.0116,-0.0116,-0.0116,0,0.0122,0.0162,0.0202,0.0213,0.0241,0.0254,0.0269,0.028,0.0309,0.0303,0.0315,0.0267,0.0248,0.0164,0.0062,0.0051,-0.0029,-0.0059,-0.0126,-0.0127,-0.0132,-0.0133,-0.022,-0.0116,-0.0116,-0.0116,-0.0116,0,0.0163,0.0195,0.0221,0.0243,0.0295,0.0297,0.0352,0.0357,0.038,0.0424,0.0368,0.0383,0.0259,0.0195,0.009,-0.0016,-0.001,-0.0112,-0.0136,-0.0115,-0.0114,-0.0221,-0.0294,-0.0118,-0.0117,-0.0117,-0.0117,0,0.0197,0.0211,0.0261,0.0297,0.0313,0.0352,0.041,0.0453,0.0462,0.0512,0.0511,0.0475,0.0398,0.0266,0.0134,0.0032,-0.0146,-0.0123,-0.0089,-0.0108,-0.026,-0.033,-0.0449,-0.0529,-0.0199,-0.0199,-0.02,0,0.022,0.0249,0.0305,0.0341,0.0359,0.0416,0.0461,0.0492,0.0545,0.0574,0.0604,0.0548,0.053,0.0336,0.0147,-0.0033,-0.0157,-0.0144,-0.0162,-0.0258,-0.0355,-0.0403,-0.0466,-0.0155,-0.0154,-0.0154,-0.0154,0,0.0268,0.0283,0.0325,0.0397,0.0449,0.0517,0.0581,0.0635,0.0674,0.0718,0.0764,0.0752,0.0575,0.0421,0.0168,0.0031,-0.0223,-0.0148,-0.0257,-0.0331,-0.0379,-0.0471,-0.0138,-0.0154,-0.0154,-0.0154,-0.0154,-0.0154,0.0303,0.0339,0.039,0.0459,0.0523,0.0604,0.0665,0.0743,0.0833,0.0898,0.0885,0.0895,0.0662,0.0337,0.0136,-0.0202,-0.0232,-0.0298,-0.0377,-0.0416,-0.0489,-0.0153,-0.019,-0.019,-0.0191,-0.0191,-0.0191,0,0.0347,0.0384,0.0451,0.0529,0.06,0.0627,0.0736,0.0801,0.0911,0.0981,0.1023,0.0925,0.0644,0.0323,-0.0122,-0.0369,-0.0486,-0.0516,-0.0581,-0.064,-0.0339,-0.0331,-0.0388,-0.0388,-0.0388,-0.0388,-0.0388,-0.0387,0.0372,0.0434,0.0462,0.0574,0.0632,0.0725,0.0787,0.0891,0.0968,0.1047,0.1061,0.1042,0.0807,0.0084,-0.0444,-0.0586,-0.0799,-0.0825,-0.0958,-0.0743,-0.0729,-0.0715,-0.0723,-0.0861,-0.0862,-0.1214,-0.1218,-0.122]}],[{"header":{"parameterUnit":"m.s-1","parameterCategory":2,"la1":30.2991,"la2":30.254,"lo1":-89.0895,"lo2":-89.0444,"dy":0.0017,"dx":0.0017,"nx":28,"ny":28,"refTime":"2024-10-05T03:00:00:Z","depth":"2","parameterNumber":2,"parameterNumberName":"U-component_of_CURRENTS"},"data":[0,0,0,0,0,0,0,0,0,0,0,0,0,0,0,0,0,0,0,0,0,0,0,0,0,0,0,0,0,0,0,0,0,0,0,0,0,0,0,0,0,0,0,0,0,0,0,0,0,0,0,0,0,0,0,0,0,0,0.2156,0.2156,0,0.2138,0.2138,0.2137,0.2114,0.2113,0.2113,0.2113,0.2094,0.2094,0.2094,0,0,0,0,0,0,0,0,0,0,0,0,0,0.2176,0.2175,0.2156,0.2156,0.2156,0.2138,0.2138,0.2137,0.2114,0.2113,0.2113,0.2113,0.2094,0.2094,0.2094,0,0,0,0,0,0,0,0,0,0,0,0,0,0.2161,0.2175,0.2156,0.2143,0.2142,0.2138,0.2138,0.2137,0.2114,0.2113,0.2113,0.2113,0.2094,0.2094,0.2094,0.2096,0,0,0.2092,0.2092,0,0,0,0,0,0,0,0,0.2162,0.216,0.2145,0.2144,0.2143,0.213,0.2138,0.2124,0.2114,0.2122,0.2113,0.2113,0.2108,0.2106,0.21,0.2096,0.2095,0.2092,0.2092,0.2092,0.2091,0,0,0,0,0,0,0,0.2163,0.2161,0.2146,0.2145,0.2144,0.2141,0.2139,0.2135,0.2115,0.2121,0.212,0.2122,0.2107,0.2101,0.21,0.2094,0.2092,0.2092,0.2091,0.2091,0.2125,0.2126,0,0,0,0,0,0,0.217,0.2162,0.2147,0.2146,0.2155,0.2141,0.2138,0.2132,0.2115,0.2113,0.2122,0.2121,0.2102,0.21,0.2099,0.2126,0.2092,0.2091,0.2091,0.2124,0.2125,0.2126,0,0,0,0,0,0,0.217,0.2168,0.2148,0.2156,0.2153,0.2141,0.2135,0.2132,0.2133,0.2116,0.2113,0.2127,0.2101,0.21,0.2107,0.2124,0.2091,0.209,0.2122,0.2124,0.2126,0.2165,0,0,0,0,0,0,0.217,0.2168,0.217,0.2156,0.2153,0.2152,0.2135,0.2132,0.2135,0.2133,0.2119,0.2116,0.2101,0.2108,0.2106,0.2123,0.209,0.2121,0.2123,0.2125,0.2162,0.2167,0.2172,0,0,0,0,0,0.2171,0.2172,0.217,0.2169,0.2155,0.2152,0.2151,0.214,0.2136,0.2139,0.2133,0.2117,0.2121,0.2108,0.2106,0.2123,0.212,0.2122,0.2125,0.2159,0.2166,0.2172,0,0,0,0,0,0,0.218,0.2169,0.2167,0.2164,0.2163,0.2149,0.2152,0.2148,0.2145,0.2145,0.2128,0.2126,0.214,0.213,0.2116,0.2142,0.212,0.2122,0.2146,0.2153,0.2158,0.2162,0.209,0,0,0,0,0,0.2185,0.2182,0.2175,0.2175,0.2175,0.2167,0.2167,0.2162,0.2157,0.2155,0.2147,0.2144,0.2149,0.2149,0.2149,0.2159,0.2163,0.2172,0.2177,0.2181,0.2185,0.2213,0.2221,0.2135,0.2135,0.2135,0,0,0.2187,0.2183,0.2181,0.2177,0.2174,0.2178,0.2166,0.2169,0.2175,0.2155,0.2161,0.2162,0.2158,0.2171,0.2177,0.2163,0.2209,0.2185,0.2188,0.219,0.2217,0.2225,0.2233,0.2137,0.2137,0.2136,0,0,0.2191,0.219,0.2188,0.219,0.2193,0.2191,0.2197,0.2191,0.2192,0.2201,0.2194,0.2209,0.2206,0.221,0.2212,0.2248,0.2239,0.2249,0.2274,0.2302,0.2309,0.2316,0.2335,0.2343,0.2249,0.2249,0.2249,0,0.2197,0.219,0.2189,0.2192,0.2196,0.2201,0.2204,0.221,0.2209,0.2218,0.2209,0.2232,0.2226,0.2253,0.2264,0.226,0.2271,0.2248,0.2309,0.2315,0.2321,0.2339,0.2348,0.2251,0.2251,0.2251,0.225,0,0.2194,0.2197,0.2199,0.2203,0.221,0.2216,0.2225,0.2237,0.2244,0.2251,0.228,0.228,0.2294,0.2299,0.2289,0.2332,0.2325,0.2314,0.2291,0.2332,0.2349,0.2357,0.2254,0.2253,0.2253,0.2252,0,0,0.2182,0.2194,0.2194,0.2198,0.2216,0.2217,0.2243,0.2263,0.2287,0.2297,0.2326,0.2342,0.2352,0.2355,0.2354,0.2374,0.2424,0.2362,0.2363,0.2379,0.2485,0.2447,0.2451,0.2424,0.2426,0.2427,0.2481,0,0.2179,0.2183,0.2194,0.2204,0.2206,0.2229,0.2252,0.2278,0.2304,0.2337,0.2357,0.2384,0.2371,0.2384,0.2407,0.2424,0.2446,0.2411,0.2445,0.2446,0.2405,0.2459,0.2238,0.2265,0.2488,0.249,0.2491,0,0.2163,0.217,0.2176,0.2201,0.2206,0.2219,0.2261,0.2286,0.2344,0.237,0.2411,0.2427,0.247,0.2448,0.2503,0.2482,0.2488,0.2495,0.2497,0.2452,0.2423,0.226,0.2271,0.2503,0.2502,0.2501,0.25,0,0.2133,0.2154,0.2158,0.2164,0.2198,0.2211,0.2237,0.2293,0.2327,0.2397,0.243,0.2483,0.2513,0.2537,0.2553,0.2534,0.2608,0.2582,0.2553,0.2551,0.2364,0.2343,0.2619,0.2619,0.2619,0.2619,0.2619,0,0.2112,0.2113,0.2143,0.2142,0.2161,0.2193,0.2231,0.2273,0.2344,0.2388,0.2443,0.2485,0.2538,0.2579,0.2582,0.26,0.2635,0.2572,0.2568,0.2372,0.2352,0.2554,0.2546,0.2621,0.262,0.262,0.262,0,0.2069,0.2088,0.2094,0.213,0.2143,0.2155,0.222,0.2252,0.2327,0.2388,0.2411,0.2508,0.2566,0.2605,0.2656,0.2636,0.2653,0.2644,0.2412,0.238,0.2568,0.2562,0.2623,0.2623,0.2622,0.2621,0.2621,0,0.2043,0.2042,0.2077,0.2084,0.2097,0.2128,0.2153,0.2234,0.2273,0.2389,0.2411,0.2503,0.255,0.2625,0.2603,0.2613,0.2656,0.2412,0.2336,0.2582,0.2572,0.2567,0.2561,0.2103,0.2098,0.2095,0.2092,0,0.2,0.2016,0.2025,0.2042,0.2059,0.2085,0.2126,0.2155,0.2247,0.23,0.2378,0.243,0.2503,0.2424,0.2446,0.2417,0.2395,0.2337,0.2654,0.2145,0.2098,0.2087,0.2097,0.2058,0.2061,0.2064,0.2065,0.2067,0.1971,0.1968,0.1986,0.1995,0.2013,0.2024,0.2024,0.2066,0.2111,0.2144,0.2258,0.2244,0.2271,0.2195,0.2133,0.2076,0.225,0.2129,0.2137,0.215,0.2089,0.2045,0.1983,0.1985,0.1988,0.199,0.1992,0,0.1925,0.1931,0.1938,0.1938,0.1922,0.1964,0.1988,0.1955,0.1954,0.1986,0.2019,0.185,0.1799,0.1819,0.1687,0.1704,0.1654,0.1625,0.1528,0.1564,0.1596,0.1503,0.1243,0.124,0.1238,0.1236,0,0,0.1904,0.1886,0.1884,0.184,0.1843,0.1794,0.1791,0.175,0.1737,0.1669,0.162,0.1708,0.1771,0.1473,0.1446,0.132,0.1425,0.1263,0.1869,0.1791,0.182,0.1898,0.1799,0,0,0,0,0]},{"header":{"parameterUnit":"m.s-1","parameterCategory":2,"la1":30.2991,"la2":30.254,"lo1":-89.0895,"lo2":-89.0444,"dy":0.0017,"dx":0.0017,"nx":28,"ny":28,"refTime":"2024-10-05T03:00:00:Z","depth":"2","parameterNumber":3,"parameterNumberName":"V-component_of_CURRENTS"},"data":[0,0,0,0,0,0,0,0,0,0,0,0,0,0,0,0,0,0,0,0,0,0,0,0,0,0,0,0,0,0,0,0,0,0,0,0,0,0,0,0,0,0,0,0,0,0,0,0,0,0,0,0,0,0,0,0,0,0,0.0046,0.0046,0,0.0014,0.0014,0.0013,-0.001,-0.001,-0.001,-0.001,-0.0058,-0.0059,-0.006,0,0,0,0,0,0,0,0,0,0,0,0,0,0.0052,0.0052,0.0046,0.0045,0.0045,0.0014,0.0014,0.0013,-0.001,-0.001,-0.001,-0.001,-0.0058,-0.0059,-0.0061,0,0,0,0,0,0,0,0,0,0,0,0,0,0.0037,0.0052,0.0046,0.0031,0.0029,0.0014,0.0013,0.0013,-0.001,-0.001,-0.001,-0.001,-0.0057,-0.0059,-0.0061,-0.0068,0,0,-0.0066,-0.0067,0,0,0,0,0,0,0,0,0.0038,0.0037,0.0033,0.0032,0.003,0.0006,-0.0002,-0.0015,-0.001,0.0004,-0.001,-0.0011,-0.0037,-0.0041,-0.0047,-0.007,-0.0072,-0.0066,-0.0067,-0.0068,-0.0068,0,0,0,0,0,0,0,0.0039,0.0038,0.0032,0.0033,0.0031,0.0013,0.0011,-0.0005,-0.0016,0.0003,0.0001,-0.0001,-0.0039,-0.0045,-0.0049,-0.0073,-0.0066,-0.0068,-0.0069,-0.0069,-0.0102,-0.0102,0,0,0,0,0,0,0.0046,0.0039,0.0033,0.0032,0.0034,0.0014,0.0011,0.0013,-0.0016,-0.002,-0.0001,-0.0002,-0.0042,-0.0046,-0.005,-0.0051,-0.0068,-0.007,-0.0071,-0.0102,-0.0102,-0.0102,0,0,0,0,0,0,0.0047,0.0046,0.0035,0.0035,0.0032,0.0014,0.0017,0.0013,0.0006,-0.0018,-0.0023,-0.0004,-0.0043,-0.0048,-0.006,-0.0053,-0.007,-0.0072,-0.0103,-0.0102,-0.0102,-0.0058,0,0,0,0,0,0,0.0047,0.0047,0.0048,0.0035,0.0032,0.0032,0.0017,0.0013,0.0005,0.0003,-0.0023,-0.0027,-0.0043,-0.0057,-0.0061,-0.0056,-0.0073,-0.0103,-0.0103,-0.0102,-0.006,-0.0056,-0.0053,0,0,0,0,0,0.0048,0.0055,0.0049,0.0048,0.0036,0.0032,0.0029,0.0014,0.0005,0.0006,-0.0011,-0.0026,-0.0058,-0.0058,-0.0063,-0.0058,-0.0103,-0.0103,-0.0102,-0.0061,-0.0057,-0.0053,0,0,0,0,0,0,0.0055,0.0052,0.0046,0.005,0.0043,0.0029,0.0027,0.0017,0.0003,-0.0,-0.0024,-0.0029,-0.0039,-0.0055,-0.0054,-0.0067,-0.0084,-0.0084,-0.005,-0.0047,-0.0044,-0.0028,-0.0075,0,0,0,0,0,0.0058,0.0064,0.0056,0.0058,0.0057,0.0041,0.0036,0.0028,0.0015,0.0009,-0.0009,-0.0028,-0.0041,-0.0048,-0.0065,-0.0071,-0.0089,-0.0072,-0.0069,-0.0066,-0.0057,-0.0078,-0.0076,-0.0101,-0.0101,-0.0101,0,0,0.006,0.006,0.0061,0.006,0.0052,0.0059,0.0038,0.0034,0.0039,0.0006,0.0004,-0.0019,-0.0041,-0.0047,-0.0053,-0.0059,-0.0069,-0.0065,-0.0063,-0.0055,-0.0078,-0.0075,-0.0073,-0.0101,-0.0101,-0.0101,0,0,0.0074,0.0068,0.0081,0.008,0.0075,0.0068,0.007,0.0057,0.005,0.0044,0.0023,0.0008,-0.0016,-0.0026,-0.0036,-0.0025,-0.0054,-0.0035,-0.0003,-0.0024,-0.0022,-0.002,-0.0042,-0.0043,-0.0031,-0.0031,-0.0031,0,0.0076,0.0093,0.0082,0.0096,0.01,0.0077,0.0093,0.0084,0.0069,0.007,0.0049,0.002,-0.0003,-0.0003,-0.0001,-0.0017,-0.0035,-0.0014,-0.0019,-0.0018,-0.0017,-0.004,-0.0041,-0.0028,-0.0029,-0.0029,-0.0029,0,0.0104,0.0115,0.0123,0.0136,0.0138,0.0146,0.0138,0.0133,0.0118,0.0112,0.0102,0.0067,0.0053,0.0039,0.0022,0.002,0.0003,-0.0014,-0.0026,-0.0011,-0.0037,-0.0039,-0.0025,-0.0026,-0.0027,-0.0027,0,0,0.0118,0.014,0.0143,0.0159,0.0162,0.017,0.0175,0.0183,0.0198,0.0165,0.0177,0.0142,0.0122,0.011,0.0081,0.006,0.0045,0.003,0.0028,0.0013,-0.0003,-0.001,-0.0014,0.0026,0.0026,0.0026,-0.0024,0,0.0145,0.0185,0.0186,0.022,0.0241,0.0227,0.0241,0.0241,0.0235,0.0239,0.0197,0.0195,0.015,0.0142,0.0115,0.0066,0.0042,0.006,-0.0019,-0.0021,-0.0025,-0.0016,0.0016,-0.0025,-0.0026,-0.0027,-0.0027,0,0.0178,0.0202,0.0243,0.0275,0.0282,0.0296,0.032,0.0332,0.0329,0.0322,0.0306,0.0273,0.0242,0.0196,0.012,0.0133,0.0071,0.0025,0.0021,0.0,-0.0032,-0.004,-0.0029,-0.0031,-0.0031,-0.0031,-0.003,0,0.0206,0.0244,0.0281,0.0291,0.0319,0.0331,0.0346,0.0357,0.0385,0.0379,0.0389,0.0342,0.0322,0.0239,0.0141,0.013,0.0051,0.0023,-0.0044,-0.0045,-0.004,-0.0041,-0.0034,-0.0034,-0.0034,-0.0034,-0.0034,0,0.0242,0.0271,0.0297,0.0318,0.0367,0.037,0.0422,0.0428,0.0451,0.0494,0.0438,0.0453,0.0331,0.0269,0.0167,0.0062,0.0069,-0.0033,-0.0055,-0.0025,-0.0023,-0.0046,-0.0046,-0.0036,-0.0036,-0.0035,-0.0035,0,0.027,0.0285,0.0332,0.0367,0.0383,0.0419,0.0477,0.052,0.0528,0.0576,0.0575,0.0539,0.0463,0.0335,0.0206,0.0107,-0.0001,-0.0045,-0.0001,-0.0017,-0.0093,-0.0091,-0.0122,-0.0122,-0.0123,-0.0123,-0.0124,0,0.029,0.0318,0.0372,0.0407,0.0424,0.048,0.0525,0.0556,0.0608,0.0636,0.0665,0.0607,0.0588,0.0398,0.0218,0.0042,0.0005,-0.0058,-0.0074,-0.0081,-0.0101,-0.0098,-0.0095,-0.0055,-0.0054,-0.0054,-0.0054,0,0.0333,0.0348,0.0388,0.0459,0.051,0.0577,0.0641,0.0693,0.0733,0.0774,0.0817,0.0802,0.063,0.0475,0.0229,0.0108,-0.0027,-0.006,-0.0074,-0.0035,-0.0021,-0.0039,-0.0038,-0.0052,-0.0052,-0.0053,-0.0053,-0.0053,0.0364,0.0399,0.0449,0.0517,0.058,0.0661,0.0722,0.0798,0.0885,0.0938,0.0925,0.0898,0.072,0.0419,0.0218,-0.0008,-0.0005,-0.009,-0.0089,-0.0089,-0.0069,-0.0057,-0.0092,-0.0092,-0.0093,-0.0093,-0.0093,0,0.0407,0.0442,0.0507,0.0585,0.0657,0.0682,0.0791,0.0856,0.0961,0.0994,0.1023,0.0858,0.0689,0.0464,0.0145,-0.004,-0.0055,-0.0108,-0.0081,-0.0081,-0.0081,-0.006,-0.0081,-0.0082,-0.0082,-0.0083,0,0,0.043,0.0491,0.052,0.0633,0.0688,0.0789,0.0852,0.0948,0.0998,0.1043,0.1018,0.0982,0.0736,0.0508,0.027,0.0087,0.0037,0.0047,0.006,0.0121,0.0123,-0.0044,-0.0009,0,0,0,0,0]}],[{"header":{"parameterUnit":"m.s-1","parameterCategory":2,"la1":30.2991,"la2":30.254,"lo1":-89.0895,"lo2":-89.0444,"dy":0.0017,"dx":0.0017,"nx":28,"ny":28,"refTime":"2024-10-05T03:00:00:Z","depth":"4","parameterNumber":2,"parameterNumberName":"U-component_of_CURRENTS"},"data":[0,0,0,0,0,0,0,0,0,0,0,0,0,0,0,0,0,0,0,0,0,0,0,0,0,0,0,0,0,0,0,0,0,0,0,0,0,0,0,0,0,0,0,0,0,0,0,0,0,0,0,0,0,0,0,0,0,0,0.1349,0.1349,0,0.1384,0.1384,0.1384,0.1417,0.1418,0.1419,0.1419,0.1456,0.1457,0.1457,0,0,0,0,0,0,0,0,0,0,0,0,0,0.1304,0.1305,0.1349,0.1349,0.135,0.1384,0.1384,0.1384,0.1417,0.1418,0.1419,0.142,0.1456,0.1457,0.1457,0,0,0,0,0,0,0,0,0,0,0,0,0,0.1328,0.1305,0.1349,0.1372,0.1375,0.1383,0.1384,0.1384,0.1417,0.1418,0.1419,0.142,0.1456,0.1457,0.1457,0.1443,0,0,0.1459,0.146,0,0,0,0,0,0,0,0,0.1326,0.1329,0.1368,0.1371,0.1373,0.1399,0.1382,0.1405,0.1417,0.1399,0.1419,0.142,0.1438,0.144,0.1442,0.1445,0.1446,0.1459,0.146,0.146,0.146,0,0,0,0,0,0,0,0.1325,0.1328,0.136,0.1369,0.1372,0.1379,0.1383,0.1386,0.1411,0.1401,0.1404,0.141,0.1439,0.1441,0.1443,0.1447,0.1459,0.146,0.146,0.1461,0.1533,0.1534,0,0,0,0,0,0,0.1324,0.1326,0.1359,0.1362,0.1354,0.1379,0.1384,0.1388,0.1411,0.1416,0.141,0.1412,0.144,0.1442,0.1444,0.151,0.146,0.1461,0.1461,0.1531,0.1533,0.1535,0,0,0,0,0,0,0.1323,0.1326,0.1358,0.1347,0.1351,0.1379,0.1384,0.1388,0.1421,0.1419,0.1423,0.1442,0.144,0.1444,0.1478,0.1508,0.1461,0.1461,0.153,0.1532,0.1534,0.1588,0,0,0,0,0,0,0.1321,0.1326,0.1343,0.1346,0.1352,0.1383,0.1383,0.1388,0.1423,0.1427,0.1447,0.145,0.1441,0.1477,0.1478,0.1508,0.1462,0.1528,0.1531,0.1533,0.1584,0.1592,0.1599,0,0,0,0,0,0.1319,0.1333,0.1343,0.1349,0.137,0.1384,0.1388,0.1409,0.1424,0.1442,0.1461,0.1451,0.1497,0.1479,0.148,0.1511,0.1526,0.153,0.1533,0.1581,0.1591,0.1598,0,0,0,0,0,0,0.1323,0.1338,0.1349,0.1368,0.1386,0.1391,0.1414,0.1426,0.1454,0.1469,0.1466,0.147,0.1512,0.1505,0.1486,0.1542,0.1511,0.1515,0.1548,0.1556,0.1563,0.1566,0.1462,0,0,0,0,0,0.1331,0.1349,0.1361,0.1381,0.1393,0.141,0.1425,0.144,0.1458,0.1473,0.1487,0.1505,0.1521,0.1535,0.1546,0.1573,0.1571,0.1596,0.1603,0.1609,0.1614,0.164,0.1649,0.1546,0.1546,0.1546,0,0,0.1339,0.1351,0.1363,0.1385,0.1402,0.1421,0.1422,0.1455,0.1478,0.1471,0.1518,0.1532,0.1535,0.1569,0.1587,0.1571,0.1639,0.1614,0.1619,0.162,0.1644,0.1654,0.1663,0.1549,0.1548,0.1548,0,0,0.1354,0.1376,0.1394,0.1411,0.1443,0.1452,0.1469,0.1493,0.1517,0.1555,0.1561,0.1596,0.1619,0.1629,0.1634,0.1687,0.1677,0.1697,0.1734,0.176,0.1768,0.1776,0.179,0.1798,0.17,0.17,0.17,0,0.1367,0.1386,0.1403,0.1423,0.1443,0.147,0.1492,0.1515,0.1551,0.1574,0.1582,0.1639,0.1645,0.1682,0.1705,0.1703,0.1713,0.1699,0.1768,0.1776,0.1782,0.1795,0.1803,0.1703,0.1703,0.1702,0.1702,0,0.1382,0.1411,0.1426,0.1459,0.1482,0.151,0.1537,0.1574,0.1609,0.163,0.169,0.1704,0.1738,0.1749,0.1744,0.1798,0.1789,0.1774,0.1744,0.1796,0.1806,0.1814,0.1707,0.1706,0.1705,0.1705,0,0,0.1374,0.1426,0.1436,0.1458,0.1506,0.1521,0.1571,0.1614,0.1655,0.17,0.1748,0.1788,0.1811,0.1819,0.1825,0.1848,0.1906,0.1839,0.1838,0.1848,0.1963,0.1834,0.1829,0.1907,0.1909,0.191,0.1952,0,0.1385,0.1425,0.1451,0.1498,0.1518,0.1561,0.1601,0.1649,0.1696,0.175,0.1785,0.1836,0.1832,0.1862,0.1888,0.1903,0.1929,0.1895,0.1916,0.1916,0.1791,0.1834,0.1915,0.1958,0.196,0.1961,0.1962,0,0.1384,0.1413,0.1458,0.1515,0.153,0.1567,0.1639,0.1681,0.1758,0.1799,0.186,0.1888,0.1945,0.193,0.1987,0.197,0.1977,0.198,0.1981,0.1845,0.18,0.1895,0.1975,0.1974,0.1973,0.1972,0.1971,0,0.1352,0.1415,0.1453,0.1473,0.1541,0.158,0.1627,0.1703,0.1747,0.1841,0.1882,0.195,0.1992,0.2019,0.2036,0.2024,0.2083,0.2061,0.1949,0.194,0.202,0.2012,0.2099,0.2099,0.2099,0.2099,0.2099,0,0.1333,0.1366,0.1448,0.1465,0.152,0.1575,0.1644,0.1702,0.1788,0.1833,0.1912,0.1946,0.2019,0.2055,0.2061,0.2026,0.2107,0.1961,0.1944,0.2042,0.2036,0.2025,0.2016,0.21,0.21,0.21,0.2099,0,0.1285,0.134,0.1387,0.1473,0.1505,0.1547,0.1648,0.1688,0.1783,0.1845,0.1879,0.1968,0.2007,0.2054,0.2098,0.204,0.203,0.1997,0.2106,0.2094,0.1865,0.1859,0.1873,0.1868,0.1865,0.1862,0.1859,0,0.1258,0.1281,0.1383,0.1414,0.146,0.1533,0.1575,0.1678,0.1713,0.1832,0.1841,0.1925,0.1965,0.1922,0.1987,0.1989,0.1964,0.1947,0.1897,0.1861,0.1843,0.1843,0.1841,0.1854,0.1853,0.1852,0.1851,0,0.1208,0.1262,0.1302,0.1367,0.142,0.1467,0.1534,0.1549,0.1652,0.1752,0.1757,0.1773,0.181,0.1835,0.1852,0.1849,0.195,0.1909,0.1916,0.1869,0.1838,0.1824,0.1827,0.1839,0.184,0.1842,0.1842,0,0.1178,0.1193,0.1256,0.13,0.1361,0.1371,0.1421,0.1447,0.1493,0.1612,0.1611,0.1695,0.1785,0.1763,0.1779,0.1767,0.1736,0.1673,0.1691,0.1706,0.1631,0.1566,0.1472,0,0,0,0,0,0.1137,0.1141,0.1179,0.121,0.1262,0.1297,0.1373,0.1421,0.1516,0.1475,0.1537,0.156,0.1573,0.1623,0.1577,0.1713,0.1751,0.1652,0.1691,0.177,0.1784,0.1711,0,0,0,0,0,0,0.1107,0.1142,0.1148,0.1122,0.1125,0.1165,0.121,0.1278,0.1259,0.1365,0.1381,0.1463,0.1504,0.158,0.1545,0.156,0.1551,0.1712,0.1708,0.1762,0.1775,0.1786,0.1716,0,0,0,0,0]},{"header":{"parameterUnit":"m.s-1","parameterCategory":2,"la1":30.2991,"la2":30.254,"lo1":-89.0895,"lo2":-89.0444,"dy":0.0017,"dx":0.0017,"nx":28,"ny":28,"refTime":"2024-10-05T03:00:00:Z","depth":"4","parameterNumber":3,"parameterNumberName":"V-component_of_CURRENTS"},"data":[0,0,0,0,0,0,0,0,0,0,0,0,0,0,0,0,0,0,0,0,0,0,0,0,0,0,0,0,0,0,0,0,0,0,0,0,0,0,0,0,0,0,0,0,0,0,0,0,0,0,0,0,0,0,0,0,0,0,0.0183,0.0182,0,0.0164,0.0164,0.0164,0.0156,0.0156,0.0156,0.0156,0.0141,0.0141,0.0141,0,0,0,0,0,0,0,0,0,0,0,0,0,0.0184,0.0184,0.0183,0.0182,0.0182,0.0165,0.0164,0.0164,0.0156,0.0156,0.0156,0.0156,0.0142,0.0141,0.0141,0,0,0,0,0,0,0,0,0,0,0,0,0,0.0177,0.0184,0.0183,0.0176,0.0175,0.0165,0.0164,0.0164,0.0156,0.0156,0.0156,0.0156,0.0142,0.0141,0.0141,0.0137,0,0,0.0139,0.0139,0,0,0,0,0,0,0,0,0.0177,0.0177,0.0177,0.0176,0.0175,0.0162,0.0159,0.0155,0.0156,0.0163,0.0156,0.0156,0.0149,0.0147,0.0144,0.0136,0.0136,0.0139,0.0138,0.0138,0.0138,0,0,0,0,0,0,0,0.0178,0.0177,0.0176,0.0177,0.0176,0.0165,0.0164,0.0158,0.0156,0.0163,0.0162,0.016,0.0148,0.0145,0.0144,0.0135,0.0139,0.0138,0.0138,0.0138,0.0126,0.0126,0,0,0,0,0,0,0.0181,0.0178,0.0176,0.0175,0.0176,0.0165,0.0164,0.0167,0.0156,0.0155,0.016,0.0159,0.0146,0.0145,0.0143,0.0149,0.0138,0.0138,0.0137,0.0126,0.0126,0.0126,0,0,0,0,0,0,0.0181,0.0181,0.0177,0.0175,0.0174,0.0165,0.0168,0.0166,0.0165,0.0154,0.0152,0.016,0.0146,0.0144,0.0143,0.0148,0.0137,0.0137,0.0126,0.0126,0.0126,0.0153,0,0,0,0,0,0,0.0181,0.0181,0.0185,0.0176,0.0174,0.0175,0.0168,0.0166,0.0163,0.0163,0.0154,0.0153,0.0146,0.0144,0.0142,0.0147,0.0136,0.0126,0.0126,0.0126,0.0152,0.0154,0.0156,0,0,0,0,0,0.0181,0.0188,0.0186,0.0186,0.018,0.0176,0.0174,0.0167,0.0164,0.0165,0.0159,0.0153,0.0143,0.0143,0.0141,0.0146,0.0126,0.0126,0.0126,0.0151,0.0154,0.0156,0,0,0,0,0,0,0.019,0.0188,0.0185,0.0191,0.0185,0.0174,0.0175,0.0169,0.0165,0.0165,0.0155,0.0153,0.0153,0.0145,0.0146,0.0142,0.0132,0.0132,0.0152,0.0154,0.0156,0.0164,0.0136,0,0,0,0,0,0.0194,0.02,0.0192,0.0197,0.0195,0.0185,0.0183,0.0178,0.0172,0.017,0.0164,0.0156,0.0151,0.015,0.0142,0.0143,0.0127,0.0143,0.0145,0.0146,0.0151,0.0129,0.013,0.0126,0.0126,0.0126,0,0,0.0198,0.0197,0.02,0.0199,0.0194,0.0198,0.0184,0.0182,0.0186,0.0169,0.0173,0.0162,0.0152,0.0152,0.015,0.0147,0.0138,0.0146,0.0148,0.0152,0.0129,0.013,0.013,0.0126,0.0126,0.0126,0,0,0.0209,0.0209,0.0217,0.0216,0.0211,0.0207,0.0208,0.0199,0.0196,0.0196,0.0185,0.0178,0.017,0.0164,0.016,0.0167,0.0147,0.0163,0.0181,0.016,0.016,0.016,0.0138,0.0136,0.0165,0.0165,0.0166,0,0.0214,0.0224,0.0218,0.0225,0.0228,0.0214,0.0223,0.0218,0.021,0.0212,0.0201,0.0188,0.0176,0.0178,0.018,0.0171,0.0155,0.0176,0.0163,0.0162,0.0162,0.0139,0.0136,0.0167,0.0167,0.0167,0.0166,0,0.023,0.0239,0.0244,0.0251,0.0253,0.0258,0.0252,0.0251,0.0244,0.0241,0.0237,0.0216,0.021,0.0202,0.0194,0.0188,0.0176,0.0167,0.0159,0.0164,0.0139,0.0136,0.0169,0.0168,0.0168,0.0168,0,0,0.024,0.0253,0.0256,0.0267,0.0269,0.0273,0.0279,0.0284,0.0296,0.0275,0.0283,0.0264,0.0251,0.0245,0.0228,0.0208,0.0187,0.0189,0.0188,0.0171,0.0138,0.0131,0.0126,0.0175,0.0175,0.0174,0.0122,0,0.0255,0.0279,0.028,0.0304,0.0316,0.031,0.0321,0.0323,0.0321,0.0324,0.0296,0.0297,0.0269,0.0267,0.0241,0.0206,0.018,0.0202,0.0134,0.0132,0.0127,0.0122,0.0173,0.0119,0.0118,0.0118,0.0117,0,0.0271,0.0287,0.0313,0.0338,0.0343,0.0355,0.0375,0.0386,0.0385,0.0382,0.037,0.0349,0.0323,0.0293,0.0228,0.0244,0.0194,0.0157,0.0154,0.0137,0.0118,0.0113,0.0111,0.0111,0.0112,0.0112,0.0113,0,0.0284,0.031,0.0336,0.0343,0.0366,0.0378,0.0394,0.0405,0.0427,0.0423,0.0431,0.0392,0.0377,0.031,0.0235,0.0231,0.0155,0.014,0.0082,0.0081,0.0092,0.0092,0.0085,0.0085,0.0085,0.0085,0.0085,0,0.0299,0.032,0.0346,0.036,0.0398,0.0405,0.0448,0.0454,0.0475,0.0504,0.0467,0.0471,0.0381,0.0327,0.0247,0.0158,0.0162,0.0085,0.0067,0.0104,0.0106,0.0089,0.009,0.0083,0.0083,0.0084,0.0084,0,0.0307,0.0323,0.0357,0.039,0.0405,0.0435,0.0489,0.0521,0.0533,0.0565,0.0566,0.0533,0.0464,0.0366,0.0258,0.0185,0.0094,0.0058,0.0107,0.0092,0.0028,0.0032,-0.0011,-0.0012,-0.0013,-0.0013,-0.0014,0,0.0313,0.0331,0.0382,0.0411,0.0428,0.0477,0.0515,0.0548,0.0584,0.0604,0.0618,0.0568,0.0527,0.0375,0.0267,0.011,0.0083,0.0029,0.0022,0.0032,0.0019,0.0023,0.0027,-0.0015,-0.0015,-0.0015,-0.0015,0,0.0326,0.0346,0.0376,0.0437,0.0482,0.0538,0.0591,0.062,0.0656,0.0665,0.066,0.0582,0.0504,0.0381,0.026,0.0147,0.0061,0.0022,0.0022,0.0016,0.0028,0.0016,0.0021,-0.0017,-0.0017,-0.0017,-0.0017,0,0.034,0.0364,0.0409,0.0462,0.0522,0.0579,0.0608,0.0647,0.0681,0.0693,0.0691,0.0606,0.0559,0.04,0.0291,0.0178,0.0142,0.0092,0.0088,0.0089,0.0131,0.0161,0.0143,0,0,0,0,0,0.0353,0.0382,0.0432,0.0491,0.0551,0.059,0.0652,0.0676,0.0704,0.0704,0.0698,0.0623,0.0469,0.0414,0.0299,0.0269,0.0117,0.0128,0.0056,-0.0029,-0.0026,0.0004,0,0,0,0,0,0,0.0362,0.0407,0.0431,0.0507,0.0552,0.0624,0.0666,0.0687,0.0687,0.0694,0.0622,0.0582,0.0441,0.0535,0.0294,0.0261,0.0195,0.0061,0.0057,-0.003,-0.0028,-0.0026,0.0006,0,0,0,0,0]}]]